Location: Dumpton Point
(51.3500°N, 1.4433°E)
Time: 18:03:40
(UTC+00:00)

Terra - Pass Details

Date: 09 April 2020
Orbit: 701 x 703 km, 98.2° (Epoch: 02 June)

Event Time Altitude Azimuth Distance (km) Brightness Sun altitude
Exits shadow 22:08:21 55° 250° (WSW) 849 2.2 -26.3°
Maximum altitude 22:08:31 55° 259° (W) 846 2.2 -26.3°
Drops below altitude 10° 22:13:13 10° 338° (NNW) 2,185 5.4 -26.7°
Sets 22:15:32 0° 343° (NNW) 3,108 6.4 -26.8°
